�N����,�����b,�ŏ������i�x�j,���ϕ����i�x�j,�ő啗���i�x�j,�ŏ�����(m/s),���ϕ���(m/s),�ő啗��(m/s),�C��(���j,���x�i���j,�C��(hPa),�~�J��(mm),�~�J����(�b�j,�~�J���x(mm/h),�~�Ђ傤��(hit/���u),�~�Ђ傤����(�b�j,�~�Ђ傤���x(hit/���uh),�q�[�^���x(���j,�q�[�^�[�d���iV),�d���d���iV),�Q�Ɠd���iV)
2011/10/01,00:00:01,065,074,083,1.9,2.3,2.5,25.7,85.1,1007.4,0.00,0,0.0,0.0,0,0.0,24.6,0.0,12.2,3.520
2011/10/01,00:10:01,100,105,111,1.4,1.5,1.7,25.7,85.3,1007.4,0.00,0,0.0,0.0,0,0.0,24.6,0.0,12.2,3.520
2011/10/01,00:20:01,017,028,041,0.8,1.2,1.5,25.8,85.3,1007.4,0.00,0,0.0,0.0,0,0.0,24.8,0.0,12.3,3.521
2011/10/01,00:30:01,074,081,085,1.4,1.5,1.5,25.8,84.6,1007.4,0.00,0,0.0,0.0,0,0.0,25.1,0.0,12.3,3.520
2011/10/01,00:40:01,051,065,076,0.6,0.8,0.9,25.8,83.5,1007.4,0.00,0,0.0,0.0,0,0.0,25.0,0.0,12.2,3.520
2011/10/01,00:50:01,089,091,092,0.8,0.9,1.0,25.9,83.2,1007.3,0.00,0,0.0,0.0,0,0.0,25.1,0.0,12.3,3.520
2011/10/01,01:00:01,071,078,083,1.6,1.7,1.8,26.0,83.3,1007.2,0.00,0,0.0,0.0,0,0.0,25.3,0.0,12.4,3.521
2011/10/01,01:10:01,061,065,071,0.8,0.9,1.0,25.9,83.8,1007.1,0.00,0,0.0,0.0,0,0.0,24.8,0.0,12.2,3.526
2011/10/01,01:20:01,087,094,101,0.8,1.0,1.1,25.9,83.7,1007.0,0.00,0,0.0,0.0,0,0.0,25.0,0.0,12.2,3.521
2011/10/01,01:30:01,005,010,019,0.9,1.1,1.3,25.8,84.6,1006.9,0.12,250,0.0,0.0,0,0.0,24.6,0.0,12.2,3.521
2011/10/01,01:40:01,059,075,087,0.8,0.9,1.1,25.7,86.4,1006.7,0.00,0,0.0,0.0,0,0.0,24.4,0.0,12.2,3.521
2011/10/01,01:50:01,069,077,086,0.5,0.6,0.7,25.6,86.9,1006.7,0.00,0,0.0,0.0,0,0.0,24.1,0.0,12.3,3.521
2011/10/01,02:00:01,082,087,091,0.4,0.5,0.6,25.5,87.0,1006.6,0.00,0,0.0,0.0,0,0.0,24.4,0.0,12.2,3.521
2011/10/01,02:10:01,071,077,083,0.6,0.7,0.8,25.4,86.9,1006.6,0.00,0,0.0,0.0,0,0.0,24.1,0.0,12.4,3.520
2011/10/01,02:20:01,090,104,115,0.1,0.2,0.3,25.4,86.9,1006.6,0.00,0,0.0,0.0,0,0.0,24.4,0.0,12.3,3.523
2011/10/01,02:30:01,006,018,029,4.9,5.6,6.1,25.4,87.7,1006.4,0.00,0,0.0,0.0,0,0.0,24.1,0.0,12.2,3.521
2011/10/01,02:40:01,023,039,054,4.5,5.4,6.8,25.2,89.1,1006.3,0.01,50,0.1,0.0,0,0.0,24.1,0.0,12.4,3.524
2011/10/01,02:50:01,013,019,023,4.6,5.1,5.6,24.9,89.8,1006.2,0.14,380,1.0,0.0,0,0.0,23.9,0.0,12.4,3.520
2011/10/01,03:00:01,008,018,034,4.4,5.1,6.3,25.0,91.3,1006.2,0.06,240,0.0,0.0,0,0.0,23.9,0.0,12.3,3.520
2011/10/01,03:10:01,018,028,043,3.0,4.1,5.4,24.8,91.3,1006.1,0.00,0,0.0,0.0,0,0.0,23.7,0.0,12.2,3.520
2011/10/01,03:20:01,023,025,029,4.7,4.9,5.0,24.6,91.6,1006.1,0.09,300,0.0,0.0,0,0.0,23.6,0.0,12.4,3.520
2011/10/01,03:30:01,359,027,041,4.0,4.6,5.0,24.7,92.2,1006.2,0.33,280,0.0,0.0,0,0.0,23.7,0.0,12.3,3.523
2011/10/01,03:40:01,024,031,037,4.2,4.4,4.6,24.5,91.9,1006.2,0.01,50,0.0,0.0,0,0.0,23.6,0.0,12.4,3.523
2011/10/01,03:50:01,030,058,097,1.8,3.1,5.0,24.2,92.5,1006.2,0.01,140,0.0,0.0,0,0.0,23.4,0.0,12.4,3.521
2011/10/01,04:00:01,027,033,038,4.6,5.2,6.0,24.4,92.8,1006.3,0.00,80,0.0,0.0,0,0.0,23.2,0.0,12.3,3.523
2011/10/01,04:10:01,044,053,059,3.5,4.2,4.8,24.5,93.0,1006.3,0.01,90,0.0,0.0,0,0.0,23.1,0.0,12.4,3.521
2011/10/01,04:20:01,037,044,055,3.6,4.0,4.5,24.2,92.3,1006.4,0.00,0,0.0,0.0,0,0.0,23.4,0.0,12.4,3.523
2011/10/01,04:30:01,013,029,042,3.6,4.2,4.8,24.5,93.0,1006.3,0.00,0,0.0,0.0,0,0.0,23.4,0.0,12.3,3.520
2011/10/01,04:40:01,020,024,030,5.4,6.2,6.7,24.3,92.5,1006.3,0.00,0,0.0,0.0,0,0.0,23.4,0.0,12.4,3.521
2011/10/01,04:50:01,014,023,032,5.6,5.8,6.0,24.5,93.4,1006.3,0.05,280,0.8,0.0,0,0.0,23.6,0.0,12.2,3.521
2011/10/01,05:00:01,022,024,027,5.3,5.5,5.8,24.2,93.1,1006.4,0.02,190,0.0,0.0,0,0.0,23.4,0.0,12.4,3.521
2011/10/01,05:10:01,012,022,039,4.7,5.1,5.7,24.1,93.3,1006.3,0.01,80,0.0,0.0,0,0.0,23.1,0.0,12.2,3.521
2011/10/01,05:20:01,038,045,053,6.0,6.7,7.7,24.0,92.9,1006.5,0.00,20,0.0,0.0,0,0.0,23.1,0.0,12.4,3.521
2011/10/01,05:30:01,004,026,039,4.8,5.3,6.0,24.0,92.6,1006.4,0.00,0,0.0,0.0,0,0.0,23.1,0.0,12.3,3.521
2011/10/01,05:40:01,032,037,046,7.8,9.4,10.2,23.7,91.9,1006.5,0.01,90,0.4,0.0,0,0.0,22.7,0.0,12.4,3.523
2011/10/01,05:50:01,006,012,023,3.5,4.4,5.5,23.7,93.1,1006.7,0.02,120,0.0,0.0,0,0.0,22.7,0.0,12.2,3.521
2011/10/01,06:00:01,026,035,049,4.3,5.2,6.6,23.5,92.8,1006.8,0.00,20,0.0,0.0,0,0.0,22.5,0.0,12.4,3.521
2011/10/01,06:10:01,020,030,045,3.6,4.4,5.4,23.6,92.6,1006.8,0.00,0,0.0,0.0,0,0.0,22.5,0.0,12.2,3.523
2011/10/01,06:20:01,013,022,034,5.7,6.3,6.7,23.9,89.8,1006.9,0.00,0,0.0,0.0,0,0.0,22.9,0.0,12.1,3.520
2011/10/01,06:30:01,032,042,047,6.8,8.0,9.3,24.0,88.0,1007.0,0.00,0,0.0,0.0,0,0.0,23.1,0.0,12.2,3.521
2011/10/01,06:40:01,023,038,049,5.6,6.5,7.0,24.0,89.9,1007.3,0.00,0,0.0,0.0,0,0.0,22.9,0.0,12.4,3.521
2011/10/01,06:50:01,018,023,034,8.4,9.4,10.3,23.7,88.8,1007.4,0.00,0,0.0,0.0,0,0.0,22.7,0.0,12.4,3.520
2011/10/01,07:00:01,016,026,034,4.3,5.7,6.6,23.7,89.6,1007.5,0.00,0,0.0,0.0,0,0.0,22.5,0.0,12.2,3.521
2011/10/01,07:10:01,011,029,052,2.8,3.9,5.0,23.5,90.1,1007.7,0.00,0,0.0,0.0,0,0.0,22.4,0.0,12.3,3.521
2011/10/01,07:20:01,072,075,078,4.4,5.4,6.4,23.5,89.5,1007.7,0.00,0,0.0,0.0,0,0.0,22.4,0.0,12.3,3.521
2011/10/01,07:30:01,055,060,064,2.2,2.7,3.1,23.6,89.3,1007.8,0.00,0,0.0,0.0,0,0.0,22.4,0.0,12.2,3.523
2011/10/01,07:40:01,024,041,076,3.8,5.2,6.9,23.4,88.3,1007.9,0.00,0,0.0,0.0,0,0.0,22.4,0.0,12.2,3.521
2011/10/01,07:50:01,027,037,053,4.2,5.0,5.8,23.4,87.2,1008.0,0.00,0,0.0,0.0,0,0.0,22.2,0.0,12.3,3.521
2011/10/01,08:00:01,043,045,048,3.4,4.6,6.0,23.6,84.5,1008.1,0.00,0,0.0,0.0,0,0.0,22.4,0.0,12.4,3.523
2011/10/01,08:10:01,027,042,051,2.3,2.9,3.3,24.1,81.4,1008.2,0.00,0,0.0,0.0,0,0.0,23.1,0.0,12.2,3.521
2011/10/01,08:20:01,030,049,065,3.3,3.8,4.3,24.2,78.9,1008.2,0.00,0,0.0,0.0,0,0.0,23.4,0.0,12.2,3.523
2011/10/01,08:30:01,029,038,045,7.4,7.7,8.2,24.5,78.5,1008.3,0.00,0,0.0,0.0,0,0.0,23.9,0.0,12.4,3.521
2011/10/01,08:40:01,018,032,040,3.0,3.3,3.7,24.5,76.3,1008.4,0.00,0,0.0,0.0,0,0.0,23.9,0.0,12.2,3.521
2011/10/01,08:50:01,071,080,092,3.7,4.2,4.5,24.5,75.3,1008.5,0.00,0,0.0,0.0,0,0.0,24.1,0.0,12.3,3.521
2011/10/01,09:00:01,061,078,097,1.8,2.2,2.5,24.7,73.0,1008.5,0.00,0,0.0,0.0,0,0.0,24.3,0.0,12.4,3.521
2011/10/01,09:10:01,016,037,050,2.3,2.4,2.5,24.7,73.3,1008.6,0.00,0,0.0,0.0,0,0.0,24.3,0.0,12.2,3.521
2011/10/01,09:20:01,015,020,028,3.9,5.2,7.3,24.9,72.3,1008.7,0.00,0,0.0,0.0,0,0.0,24.4,0.0,12.2,3.520
2011/10/01,09:30:01,023,034,039,4.2,4.5,4.9,25.0,72.4,1008.8,0.00,0,0.0,0.0,0,0.0,24.6,0.0,12.4,3.521
2011/10/01,09:40:01,018,027,032,4.2,4.6,5.2,25.2,72.4,1008.8,0.00,0,0.0,0.0,0,0.0,25.0,0.0,12.3,3.520
2011/10/01,09:50:01,032,043,055,2.3,2.7,3.1,25.5,70.0,1008.8,0.00,0,0.0,0.0,0,0.0,25.8,0.0,12.4,3.520
2011/10/01,10:00:01,032,033,036,4.6,5.2,5.8,25.6,69.8,1008.9,0.00,0,0.0,0.0,0,0.0,26.0,0.0,12.4,3.521
2011/10/01,10:10:01,024,033,038,4.2,4.4,4.7,25.6,71.0,1008.8,0.00,0,0.0,0.0,0,0.0,25.6,0.0,12.3,3.521
2011/10/01,10:20:01,037,044,048,3.7,4.4,5.0,25.5,71.5,1008.8,0.00,0,0.0,0.0,0,0.0,25.5,0.0,12.3,3.521
2011/10/01,10:30:01,019,033,043,4.1,5.6,6.5,25.6,70.2,1008.8,0.00,0,0.0,0.0,0,0.0,25.8,0.0,12.3,3.520
2011/10/01,10:40:01,024,029,032,3.5,4.4,4.9,25.6,71.7,1008.7,0.00,0,0.0,0.0,0,0.0,25.8,0.0,12.3,3.521
2011/10/01,10:50:01,032,036,039,5.9,6.2,6.6,25.6,69.3,1008.6,0.00,0,0.0,0.0,0,0.0,25.8,0.0,12.3,3.521
2011/10/01,11:00:01,027,036,046,4.8,5.0,5.3,25.8,69.3,1008.4,0.00,0,0.0,0.0,0,0.0,25.8,0.0,12.2,3.521
2011/10/01,11:10:01,033,046,054,3.4,3.6,3.8,26.0,69.7,1008.2,0.00,0,0.0,0.0,0,0.0,26.5,0.0,12.3,3.520
2011/10/01,11:20:01,016,033,048,5.3,6.1,6.5,26.5,65.7,1008.1,0.00,0,0.0,0.0,0,0.0,27.4,0.0,12.3,3.520
2011/10/01,11:30:01,026,038,047,4.7,5.4,6.3,26.9,65.5,1008.0,0.00,0,0.0,0.0,0,0.0,28.6,0.0,12.3,3.521
2011/10/01,11:40:01,034,041,044,3.7,4.5,4.9,26.9,64.2,1008.0,0.00,0,0.0,0.0,0,0.0,28.4,0.0,12.3,3.521
2011/10/01,11:50:01,026,036,042,3.4,3.8,4.0,27.3,63.8,1007.9,0.00,0,0.0,0.0,0,0.0,29.1,0.0,12.3,3.521
2011/10/01,12:00:01,032,047,065,5.9,6.6,7.3,27.1,66.4,1007.8,0.00,0,0.0,0.0,0,0.0,28.6,0.0,12.3,3.521
2011/10/01,12:10:01,018,039,061,2.8,3.6,4.3,26.7,66.7,1007.7,0.00,0,0.0,0.0,0,0.0,27.9,0.0,12.3,3.521
2011/10/01,12:20:01,055,058,062,2.3,2.4,2.5,27.0,66.6,1007.6,0.00,0,0.0,0.0,0,0.0,28.2,0.0,12.3,3.520
2011/10/01,12:30:01,032,034,037,6.4,6.7,7.4,27.1,67.5,1007.5,0.00,0,0.0,0.0,0,0.0,28.4,0.0,12.3,3.521
2011/10/01,12:40:01,067,069,071,3.6,4.3,4.8,27.1,65.8,1007.4,0.00,0,0.0,0.0,0,0.0,28.6,0.0,12.3,3.520
2011/10/01,12:50:01,020,032,052,4.4,4.7,5.3,26.8,66.0,1007.4,0.00,0,0.0,0.0,0,0.0,28.1,0.0,12.3,3.521
2011/10/01,13:00:01,101,112,131,0.6,1.0,1.4,27.0,64.7,1007.4,0.00,0,0.0,0.0,0,0.0,28.7,0.0,12.3,3.520
2011/10/01,13:10:01,029,034,037,3.3,4.9,6.0,26.8,66.4,1007.3,0.00,0,0.0,0.0,0,0.0,27.9,0.0,12.4,3.521
2011/10/01,13:20:01,063,067,072,3.9,4.3,4.6,26.6,64.9,1007.2,0.00,0,0.0,0.0,0,0.0,27.5,0.0,12.2,3.520
2011/10/01,13:30:01,056,061,069,3.1,3.5,4.1,26.6,66.3,1007.0,0.00,0,0.0,0.0,0,0.0,27.4,0.0,12.3,3.520
2011/10/01,13:40:01,016,022,028,4.5,4.9,5.3,26.6,65.7,1006.9,0.00,0,0.0,0.0,0,0.0,27.5,0.0,12.3,3.520
2011/10/01,13:50:01,055,066,072,3.4,4.6,6.3,26.6,66.4,1006.9,0.00,0,0.0,0.0,0,0.0,27.4,0.0,12.3,3.521
2011/10/01,14:00:01,037,044,052,2.2,2.4,2.7,26.3,66.9,1006.8,0.00,0,0.0,0.0,0,0.0,27.0,0.0,12.3,3.520
2011/10/01,14:10:01,090,094,095,1.8,2.5,3.0,26.6,67.3,1006.8,0.00,0,0.0,0.0,0,0.0,27.4,0.0,12.4,3.520
2011/10/01,14:20:01,066,083,094,1.9,2.2,2.5,26.5,67.5,1006.9,0.00,0,0.0,0.0,0,0.0,27.5,0.0,12.3,3.520
2011/10/01,14:30:01,060,070,080,1.2,2.0,3.0,26.3,66.7,1007.0,0.00,0,0.0,0.0,0,0.0,27.2,0.0,12.2,3.520
2011/10/01,14:40:01,033,058,087,2.1,2.4,2.8,26.3,67.4,1007.0,0.00,0,0.0,0.0,0,0.0,27.0,0.0,12.3,3.521
2011/10/01,14:50:01,001,037,067,1.9,2.2,2.8,26.3,67.1,1006.9,0.00,0,0.0,0.0,0,0.0,26.8,0.0,12.3,3.521
2011/10/01,15:00:01,013,023,033,4.7,5.5,5.9,26.6,65.8,1006.8,0.00,0,0.0,0.0,0,0.0,27.4,0.0,12.3,3.520
2011/10/01,15:10:01,026,027,029,3.6,4.0,4.5,26.4,67.0,1006.8,0.00,0,0.0,0.0,0,0.0,27.4,0.0,12.3,3.521
2011/10/01,15:20:01,005,011,015,4.9,5.2,5.8,26.2,67.5,1006.8,0.00,0,0.0,0.0,0,0.0,26.8,0.0,12.3,3.520
2011/10/01,15:30:01,014,018,022,4.3,4.8,5.5,26.0,68.7,1006.7,0.00,0,0.0,0.0,0,0.0,26.3,0.0,12.3,3.521
2011/10/01,15:40:01,304,001,037,2.9,3.8,5.6,25.9,68.8,1006.7,0.00,0,0.0,0.0,0,0.0,26.0,0.0,12.3,3.521
2011/10/01,15:50:01,011,020,025,6.1,6.8,7.6,25.8,69.2,1006.8,0.00,0,0.0,0.0,0,0.0,25.6,0.0,12.3,3.521
2011/10/01,16:00:01,022,027,035,5.7,6.1,6.5,25.8,69.0,1006.7,0.00,0,0.0,0.0,0,0.0,25.8,0.0,12.2,3.520
2011/10/01,16:10:01,358,006,021,4.7,5.2,5.5,25.7,68.7,1006.9,0.00,0,0.0,0.0,0,0.0,25.5,0.0,12.3,3.521
2011/10/01,16:20:01,018,030,042,4.2,5.1,5.9,25.6,68.7,1006.9,0.00,0,0.0,0.0,0,0.0,25.3,0.0,12.3,3.521
2011/10/01,16:30:01,028,039,054,4.5,4.8,5.1,25.5,68.1,1006.9,0.00,0,0.0,0.0,0,0.0,25.5,0.0,12.3,3.521
2011/10/01,16:40:01,018,027,041,3.3,3.4,3.5,25.5,68.4,1006.9,0.00,0,0.0,0.0,0,0.0,25.1,0.0,12.1,3.520
2011/10/01,16:50:01,029,031,034,4.4,5.5,6.6,25.4,69.0,1007.0,0.00,0,0.0,0.0,0,0.0,25.0,0.0,12.3,3.521
2011/10/01,17:00:01,011,018,028,4.6,4.8,5.0,25.3,67.1,1007.1,0.00,0,0.0,0.0,0,0.0,25.0,0.0,12.3,3.521
2011/10/01,17:10:01,024,036,043,2.6,3.9,5.1,25.3,66.0,1007.1,0.00,0,0.0,0.0,0,0.0,25.1,0.0,12.3,3.521
2011/10/01,17:20:01,016,028,039,5.4,6.4,6.9,25.2,68.0,1007.2,0.00,0,0.0,0.0,0,0.0,24.6,0.0,12.3,3.521
2011/10/01,17:30:01,032,039,048,4.0,5.1,5.7,25.2,67.6,1007.2,0.00,0,0.0,0.0,0,0.0,24.8,0.0,12.2,3.523
2011/10/01,17:40:01,016,025,041,1.4,2.4,3.4,25.2,66.9,1007.3,0.00,0,0.0,0.0,0,0.0,24.6,0.0,12.3,3.520
2011/10/01,17:50:01,029,030,031,4.4,4.8,5.1,25.2,66.6,1007.3,0.00,0,0.0,0.0,0,0.0,24.6,0.0,12.3,3.521
2011/10/01,18:00:01,014,025,041,4.2,4.5,4.7,25.1,68.2,1007.4,0.00,0,0.0,0.0,0,0.0,24.4,0.0,12.3,3.521
2011/10/01,18:10:01,029,032,036,4.6,5.2,5.6,25.1,67.7,1007.5,0.00,0,0.0,0.0,0,0.0,24.6,0.0,12.3,3.520
2011/10/01,18:20:01,033,046,056,4.4,4.7,5.0,25.1,67.5,1007.5,0.00,0,0.0,0.0,0,0.0,24.3,0.0,12.3,3.521
2011/10/01,18:30:01,025,030,035,4.1,4.7,5.6,25.1,68.6,1007.5,0.00,0,0.0,0.0,0,0.0,24.4,0.0,12.3,3.523
2011/10/01,18:40:01,021,026,035,6.1,6.5,7.1,25.1,69.2,1007.5,0.00,0,0.0,0.0,0,0.0,24.3,0.0,12.4,3.521
2011/10/01,18:50:01,006,017,026,4.2,5.0,5.8,25.1,68.9,1007.6,0.00,0,0.0,0.0,0,0.0,24.4,0.0,12.3,3.523
2011/10/01,19:00:01,026,032,036,5.0,5.2,5.4,25.2,69.0,1007.7,0.00,0,0.0,0.0,0,0.0,24.3,0.0,12.2,3.521
2011/10/01,19:10:01,044,055,065,2.7,3.9,4.8,25.2,69.8,1007.9,0.00,0,0.0,0.0,0,0.0,24.4,0.0,12.3,3.521
2011/10/01,19:20:01,023,026,029,4.0,4.9,5.5,25.2,68.9,1007.9,0.00,0,0.0,0.0,0,0.0,24.4,0.0,12.3,3.523
2011/10/01,19:30:01,008,018,025,4.0,4.9,6.0,25.1,67.8,1008.0,0.00,0,0.0,0.0,0,0.0,24.4,0.0,12.3,3.521
2011/10/01,19:40:01,034,035,035,5.8,6.2,6.6,25.1,69.5,1008.1,0.00,0,0.0,0.0,0,0.0,24.8,0.0,12.3,3.521
2011/10/01,19:50:01,356,016,032,2.1,2.7,3.5,25.0,70.1,1008.2,0.00,0,0.0,0.0,0,0.0,24.3,0.0,12.4,3.521
2011/10/01,20:00:01,039,044,049,4.0,5.3,6.6,25.1,70.4,1008.3,0.00,0,0.0,0.0,0,0.0,24.3,0.0,12.3,3.523
2011/10/01,20:10:01,049,065,074,3.3,4.0,4.7,25.1,70.5,1008.3,0.00,0,0.0,0.0,0,0.0,24.4,0.0,12.4,3.521
2011/10/01,20:20:01,064,079,099,2.0,2.5,2.9,25.0,69.5,1008.4,0.00,0,0.0,0.0,0,0.0,24.6,0.0,12.4,3.520
2011/10/01,20:30:01,035,067,087,3.3,3.8,4.2,25.1,70.6,1008.6,0.00,0,0.0,0.0,0,0.0,24.3,0.0,12.2,3.521
2011/10/01,20:40:01,029,060,086,0.8,1.3,1.9,25.1,70.6,1008.7,0.00,0,0.0,0.0,0,0.0,24.3,0.0,12.4,3.521
2011/10/01,20:50:01,059,081,096,2.6,3.0,3.5,25.0,69.8,1008.6,0.00,0,0.0,0.0,0,0.0,24.1,0.0,12.2,3.521
2011/10/01,21:00:01,037,050,066,4.4,5.6,7.2,25.0,70.0,1008.6,0.00,0,0.0,0.0,0,0.0,24.1,0.0,12.4,3.521
2011/10/01,21:10:01,025,047,059,2.1,2.6,3.4,25.0,70.5,1008.7,0.00,0,0.0,0.0,0,0.0,24.3,0.0,12.2,3.521
2011/10/01,21:20:01,026,029,036,5.5,5.7,5.9,25.0,71.1,1008.7,0.00,0,0.0,0.0,0,0.0,24.3,0.0,12.3,3.523
2011/10/01,21:30:01,064,083,101,1.2,1.7,2.6,25.0,71.7,1008.6,0.00,0,0.0,0.0,0,0.0,24.1,0.0,12.3,3.521
2011/10/01,21:40:01,021,034,041,3.8,3.9,4.2,24.9,71.6,1008.6,0.00,0,0.0,0.0,0,0.0,23.7,0.0,12.4,3.523
2011/10/01,21:50:01,060,069,083,3.2,4.4,5.5,24.8,72.1,1008.6,0.00,0,0.0,0.0,0,0.0,23.9,0.0,12.4,3.521
2011/10/01,22:00:01,041,045,052,2.8,3.6,4.1,24.7,72.1,1008.6,0.00,0,0.0,0.0,0,0.0,23.7,0.0,12.3,3.523
2011/10/01,22:10:01,039,048,054,1.8,2.0,2.1,24.8,72.6,1008.5,0.00,0,0.0,0.0,0,0.0,23.7,0.0,12.3,3.521
2011/10/01,22:20:01,051,063,082,1.8,2.5,3.1,24.8,71.4,1008.5,0.00,0,0.0,0.0,0,0.0,23.7,0.0,12.2,3.521
2011/10/01,22:30:01,039,052,067,3.9,4.0,4.1,24.8,71.1,1008.5,0.00,0,0.0,0.0,0,0.0,23.7,0.0,12.2,3.521
2011/10/01,22:40:01,031,047,076,0.7,1.0,1.2,24.8,72.3,1008.5,0.00,0,0.0,0.0,0,0.0,23.9,0.0,12.4,3.521
2011/10/01,22:50:01,035,044,053,2.1,2.2,2.3,24.8,72.3,1008.5,0.00,0,0.0,0.0,0,0.0,23.7,0.0,12.3,3.520
2011/10/01,23:00:01,065,074,087,2.4,2.5,2.6,24.8,72.4,1008.5,0.00,0,0.0,0.0,0,0.0,23.9,0.0,12.3,3.521
2011/10/01,23:10:01,061,082,106,1.5,2.0,2.5,24.8,71.8,1008.6,0.00,0,0.0,0.0,0,0.0,23.9,0.0,12.3,3.521
2011/10/01,23:20:01,030,042,055,2.6,3.3,3.9,25.0,72.3,1008.6,0.00,0,0.0,0.0,0,0.0,24.1,0.0,12.2,3.523
2011/10/01,23:30:01,077,086,092,1.9,2.9,3.5,25.2,69.8,1008.6,0.00,0,0.0,0.0,0,0.0,24.3,0.0,12.2,3.521
2011/10/01,23:40:01,043,067,090,0.7,1.2,1.8,25.2,71.2,1008.5,0.00,0,0.0,0.0,0,0.0,24.4,0.0,12.4,3.521
2011/10/01,23:50:01,017,041,057,2.2,2.8,3.4,25.2,71.7,1008.3,0.00,0,0.0,0.0,0,0.0,24.4,0.0,12.2,3.521
2011/10/02,00:00:01,051,071,081,0.9,1.4,1.8,25.2,72.8,1008.3,0.00,0,0.0,0.0,0,0.0,24.4,0.0,12.3,3.521
2011/10/02,00:10:01,037,043,050,2.2,2.6,3.0,25.2,74.1,1008.3,0.00,0,0.0,0.0,0,0.0,24.3,0.0,12.4,3.521
2011/10/02,00:20:01,032,039,043,3.8,4.3,4.6,25.2,75.4,1008.3,0.00,0,0.0,0.0,0,0.0,24.4,0.0,12.2,3.520
2011/10/02,00:30:01,012,035,056,1.5,1.7,1.9,25.3,77.1,1008.2,0.00,0,0.0,0.0,0,0.0,24.3,0.0,12.4,3.521
2011/10/02,00:40:01,019,039,050,2.6,3.0,3.5,25.1,78.3,1008.1,0.00,0,0.0,0.0,0,0.0,24.3,0.0,12.3,3.521
2011/10/02,00:50:01,026,041,055,2.8,3.4,4.6,25.1,78.9,1007.8,0.00,0,0.0,0.0,0,0.0,24.1,0.0,12.3,3.521
2011/10/02,01:00:01,032,036,038,3.8,4.8,5.6,25.0,77.5,1007.7,0.00,0,0.0,0.0,0,0.0,24.3,0.0,12.4,3.520
2011/10/02,01:10:01,054,061,072,1.5,1.8,2.1,25.1,77.9,1007.6,0.00,0,0.0,0.0,0,0.0,24.3,0.0,12.2,3.524
2011/10/02,01:20:01,019,031,039,3.0,3.2,3.4,25.1,79.2,1007.6,0.00,0,0.0,0.0,0,0.0,24.3,0.0,12.4,3.521
2011/10/02,01:30:01,018,028,034,4.3,4.5,4.9,25.0,78.9,1007.4,0.00,0,0.0,0.0,0,0.0,24.3,0.0,12.3,3.520
2011/10/02,01:40:01,031,035,043,5.6,6.4,6.9,25.0,78.8,1007.5,0.00,0,0.0,0.0,0,0.0,24.3,0.0,12.3,3.521
2011/10/02,01:50:01,013,019,025,7.1,7.6,8.1,25.1,78.9,1007.4,0.00,0,0.0,0.0,0,0.0,24.3,0.0,12.3,3.523
2011/10/02,02:00:01,033,037,041,3.7,4.3,5.0,25.0,78.5,1007.3,0.00,0,0.0,0.0,0,0.0,24.3,0.0,12.4,3.521
2011/10/02,02:10:01,027,032,039,5.2,5.5,6.1,25.1,80.2,1007.3,0.00,0,0.0,0.0,0,0.0,24.1,0.0,12.4,3.521
2011/10/02,02:20:01,011,022,036,4.0,4.4,5.2,25.1,79.8,1007.2,0.00,0,0.0,0.0,0,0.0,24.4,0.0,12.3,3.523
2011/10/02,02:30:01,019,024,032,6.1,7.1,8.5,25.1,80.0,1007.2,0.00,0,0.0,0.0,0,0.0,24.3,0.0,12.2,3.521
2011/10/02,02:40:01,342,004,030,1.8,3.2,4.2,25.1,79.9,1007.1,0.00,0,0.0,0.0,0,0.0,24.3,0.0,12.3,3.521
2011/10/02,02:50:01,017,025,031,2.6,3.3,4.3,25.0,80.3,1007.1,0.00,0,0.0,0.0,0,0.0,24.3,0.0,12.3,3.521
2011/10/02,03:00:01,028,041,048,5.7,6.4,7.5,25.2,80.9,1006.9,0.00,0,0.0,0.0,0,0.0,24.1,0.0,12.2,3.524
2011/10/02,03:10:01,042,044,045,6.0,6.7,7.3,25.1,82.1,1007.0,0.00,0,0.0,0.0,0,0.0,24.3,0.0,12.3,3.521
2011/10/02,03:20:01,015,026,047,4.9,5.1,5.2,25.0,83.0,1006.9,0.00,0,0.0,0.0,0,0.0,24.1,0.0,12.3,3.524
2011/10/02,03:30:01,015,026,042,3.6,4.3,5.1,25.1,82.2,1006.9,0.00,0,0.0,0.0,0,0.0,24.3,0.0,12.4,3.521
2011/10/02,03:40:01,028,032,037,3.8,4.9,5.5,25.2,82.6,1006.9,0.00,0,0.0,0.0,0,0.0,24.4,0.0,12.4,3.521
2011/10/02,03:50:01,027,037,045,4.6,4.9,5.1,25.3,82.3,1006.9,0.00,0,0.0,0.0,0,0.0,24.6,0.0,12.2,3.521
2011/10/02,04:00:01,038,040,042,6.2,7.7,9.2,25.4,79.6,1007.0,0.00,0,0.0,0.0,0,0.0,24.8,0.0,12.3,3.521
2011/10/02,04:10:01,020,041,055,3.6,5.4,7.4,25.6,78.3,1007.1,0.00,0,0.0,0.0,0,0.0,24.8,0.0,12.3,3.521
2011/10/02,04:20:01,011,025,047,4.2,4.8,5.5,25.6,78.1,1007.0,0.00,0,0.0,0.0,0,0.0,25.0,0.0,12.2,3.523
2011/10/02,04:30:01,057,068,080,1.8,2.5,3.4,25.5,78.3,1007.2,0.00,0,0.0,0.0,0,0.0,24.8,0.0,12.2,3.521
2011/10/02,04:40:01,028,032,037,3.2,4.9,6.3,25.5,77.8,1007.1,0.00,0,0.0,0.0,0,0.0,24.8,0.0,12.3,3.523
2011/10/02,04:50:01,001,043,087,3.4,4.1,4.9,25.4,79.6,1007.2,0.00,0,0.0,0.0,0,0.0,24.6,0.0,12.2,3.521
2011/10/02,05:00:01,038,041,043,6.0,6.5,6.9,25.4,79.3,1007.1,0.00,0,0.0,0.0,0,0.0,24.6,0.0,12.3,3.520
2011/10/02,05:10:01,020,029,043,5.5,5.8,6.0,25.4,78.3,1007.2,0.00,0,0.0,0.0,0,0.0,24.4,0.0,12.3,3.520
2011/10/02,05:20:01,020,037,059,5.5,6.0,6.6,25.4,76.7,1007.2,0.00,0,0.0,0.0,0,0.0,24.6,0.0,12.3,3.521
2011/10/02,05:30:01,033,040,047,7.1,7.6,8.0,25.5,76.7,1007.3,0.00,0,0.0,0.0,0,0.0,24.8,0.0,12.2,3.523
2011/10/02,05:40:01,038,039,042,5.5,6.1,6.6,25.5,76.3,1007.4,0.00,0,0.0,0.0,0,0.0,24.8,0.0,12.3,3.521
2011/10/02,05:50:01,030,039,044,4.5,4.9,5.2,25.6,76.9,1007.4,0.00,0,0.0,0.0,0,0.0,24.6,0.0,12.3,3.520
2011/10/02,06:00:01,028,043,051,4.6,5.5,6.5,25.5,76.1,1007.4,0.00,0,0.0,0.0,0,0.0,24.8,0.0,12.3,3.523
2011/10/02,06:10:01,031,039,045,3.3,3.9,4.9,25.4,76.6,1007.5,0.00,0,0.0,0.0,0,0.0,24.6,0.0,12.2,3.521
2011/10/02,06:20:01,027,036,051,4.0,4.1,4.2,25.4,76.6,1007.5,0.00,0,0.0,0.0,0,0.0,24.6,0.0,12.3,3.521
2011/10/02,06:30:01,060,065,071,3.0,3.5,4.1,25.4,76.0,1007.7,0.00,0,0.0,0.0,0,0.0,24.8,0.0,12.3,3.521
2011/10/02,06:40:01,036,043,054,4.1,4.3,4.6,25.4,76.8,1007.8,0.00,0,0.0,0.0,0,0.0,24.4,0.0,12.3,3.520
2011/10/02,06:50:01,036,075,102,1.8,3.0,4.0,25.3,76.5,1007.7,0.00,0,0.0,0.0,0,0.0,24.4,0.0,12.3,3.520
2011/10/02,07:00:01,031,042,064,1.1,1.5,1.8,25.1,78.7,1007.9,0.01,10,0.0,0.0,0,0.0,23.9,0.0,12.3,3.523
2011/10/02,07:10:01,057,072,084,4.0,4.4,4.7,24.4,82.7,1008.0,0.00,60,0.0,0.0,0,0.0,23.1,0.0,12.3,3.521
2011/10/02,07:20:01,035,042,051,6.5,7.1,7.6,24.3,81.9,1008.0,0.00,0,0.0,0.0,0,0.0,23.1,0.0,12.2,3.521
2011/10/02,07:30:01,025,035,040,5.2,5.4,5.7,24.7,80.1,1008.0,0.00,0,0.0,0.0,0,0.0,23.6,0.0,12.4,3.523
2011/10/02,07:40:01,031,038,051,4.4,5.0,5.8,24.9,78.0,1008.1,0.00,0,0.0,0.0,0,0.0,23.9,0.0,12.3,3.521
2011/10/02,07:50:01,019,032,044,2.3,3.4,4.2,25.2,77.2,1008.2,0.00,0,0.0,0.0,0,0.0,24.3,0.0,12.2,3.521
2011/10/02,08:00:01,015,043,083,2.9,3.4,4.0,25.2,75.3,1008.3,0.00,0,0.0,0.0,0,0.0,24.6,0.0,12.4,3.521
2011/10/02,08:10:01,031,036,043,5.4,5.5,5.6,25.3,74.4,1008.4,0.00,0,0.0,0.0,0,0.0,24.6,0.0,12.4,3.520
2011/10/02,08:20:01,038,057,068,2.9,3.6,4.2,25.4,73.7,1008.5,0.00,0,0.0,0.0,0,0.0,24.8,0.0,12.2,3.521
2011/10/02,08:30:01,046,058,079,3.2,3.7,4.5,25.5,74.0,1008.4,0.00,0,0.0,0.0,0,0.0,24.8,0.0,12.4,3.521
2011/10/02,08:40:01,018,032,046,1.0,2.2,3.3,25.7,73.5,1008.5,0.00,0,0.0,0.0,0,0.0,25.1,0.0,12.1,3.521
2011/10/02,08:50:01,024,033,045,6.5,7.4,8.3,25.7,74.7,1008.7,0.00,0,0.0,0.0,0,0.0,25.1,0.0,12.2,3.521
2011/10/02,09:00:01,358,034,099,2.5,2.9,3.6,25.7,74.1,1008.8,0.00,0,0.0,0.0,0,0.0,25.3,0.0,12.1,3.520
2011/10/02,09:10:01,013,029,047,4.0,4.7,5.2,25.8,72.4,1008.6,0.00,0,0.0,0.0,0,0.0,25.5,0.0,12.4,3.521
2011/10/02,09:20:01,095,096,096,2.4,2.7,2.9,25.8,71.2,1008.6,0.00,0,0.0,0.0,0,0.0,25.3,0.0,12.1,3.520
2011/10/02,09:30:01,038,049,065,3.8,4.1,4.5,25.8,71.6,1008.7,0.00,0,0.0,0.0,0,0.0,25.5,0.0,12.4,3.520
2011/10/02,09:40:01,017,028,044,2.4,3.4,4.4,25.8,72.1,1008.7,0.00,0,0.0,0.0,0,0.0,25.5,0.0,12.4,3.521
2011/10/02,09:50:01,021,032,038,3.6,4.8,5.8,25.9,73.3,1008.7,0.00,0,0.0,0.0,0,0.0,25.5,0.0,12.4,3.521
2011/10/02,10:00:01,025,035,046,4.2,4.5,4.9,25.8,72.4,1008.7,0.00,0,0.0,0.0,0,0.0,25.5,0.0,12.2,3.521
2011/10/02,10:10:01,028,050,062,1.6,2.1,2.5,25.8,73.7,1008.8,0.00,0,0.0,0.0,0,0.0,25.5,0.0,12.1,3.521
2011/10/02,10:20:01,038,068,097,3.7,4.2,4.6,25.9,72.9,1008.7,0.00,0,0.0,0.0,0,0.0,25.5,0.0,12.2,3.521
2011/10/02,10:30:01,005,035,080,4.6,5.1,5.5,25.8,72.3,1008.7,0.00,0,0.0,0.0,0,0.0,25.3,0.0,12.4,3.521
2011/10/02,10:40:01,016,045,071,3.9,4.6,5.3,25.9,72.4,1008.5,0.00,0,0.0,0.0,0,0.0,25.6,0.0,12.4,3.521
2011/10/02,10:50:01,024,034,045,1.2,1.5,1.7,25.9,71.2,1008.5,0.00,0,0.0,0.0,0,0.0,25.6,0.0,12.3,3.521
2011/10/02,11:00:01,029,031,034,5.3,5.7,6.2,25.9,71.8,1008.4,0.00,0,0.0,0.0,0,0.0,25.6,0.0,12.3,3.521
2011/10/02,11:10:01,033,041,045,3.6,3.9,4.3,25.8,72.1,1008.3,0.00,0,0.0,0.0,0,0.0,25.5,0.0,12.2,3.521
2011/10/02,11:20:01,012,036,054,4.5,5.2,5.9,25.8,72.2,1008.3,0.00,0,0.0,0.0,0,0.0,25.5,0.0,12.2,3.521
2011/10/02,11:30:01,033,051,068,4.1,4.4,4.7,25.8,72.9,1008.1,0.00,0,0.0,0.0,0,0.0,25.3,0.0,12.2,3.521
2011/10/02,11:40:01,069,098,125,1.2,1.8,2.2,25.9,72.6,1008.0,0.00,0,0.0,0.0,0,0.0,25.6,0.0,12.3,3.521
2011/10/02,11:50:01,059,073,093,3.4,3.8,4.3,25.9,72.9,1007.9,0.00,0,0.0,0.0,0,0.0,25.6,0.0,12.2,3.521
2011/10/02,12:00:01,356,014,038,1.6,2.5,3.1,25.8,73.4,1007.9,0.00,0,0.0,0.0,0,0.0,25.6,0.0,12.4,3.521
2011/10/02,12:10:01,036,058,074,2.0,2.7,3.6,26.0,73.4,1007.8,0.00,0,0.0,0.0,0,0.0,25.8,0.0,12.4,3.520
2011/10/02,12:20:01,055,073,091,3.5,4.0,4.8,26.1,71.8,1007.7,0.00,0,0.0,0.0,0,0.0,26.0,0.0,12.2,3.521
2011/10/02,12:30:01,038,069,088,2.6,4.0,4.9,26.4,70.1,1007.5,0.00,0,0.0,0.0,0,0.0,26.7,0.0,12.4,3.521
2011/10/02,12:40:01,029,042,067,3.0,4.8,6.2,26.4,70.8,1007.4,0.00,0,0.0,0.0,0,0.0,27.2,0.0,12.4,3.521
2011/10/02,12:50:01,067,072,076,6.1,6.6,7.3,26.5,70.5,1007.4,0.00,0,0.0,0.0,0,0.0,27.0,0.0,12.2,3.521
2011/10/02,13:00:01,026,048,062,7.0,7.2,7.4,26.5,69.5,1007.5,0.00,0,0.0,0.0,0,0.0,27.0,0.0,12.2,3.521
2011/10/02,13:10:01,070,076,080,2.6,3.7,4.7,26.3,70.6,1007.3,0.00,0,0.0,0.0,0,0.0,26.7,0.0,12.3,3.524
2011/10/02,13:20:01,081,089,093,3.7,4.1,4.7,26.7,69.5,1007.2,0.00,0,0.0,0.0,0,0.0,27.4,0.0,12.4,3.521
2011/10/02,13:30:01,030,048,058,2.5,2.7,2.9,26.7,70.4,1007.1,0.00,0,0.0,0.0,0,0.0,27.2,0.0,12.3,3.521
2011/10/02,13:40:01,025,042,063,4.2,5.9,7.5,26.5,69.9,1007.0,0.00,0,0.0,0.0,0,0.0,27.4,0.0,12.2,3.520
2011/10/02,13:50:01,031,041,055,4.9,5.3,5.8,26.5,72.1,1007.0,0.00,0,0.0,0.0,0,0.0,26.7,0.0,12.3,3.523
2011/10/02,14:00:01,021,068,093,3.4,4.0,5.0,26.2,72.0,1006.9,0.00,0,0.0,0.0,0,0.0,26.3,0.0,12.4,3.521
2011/10/02,14:10:01,030,045,065,4.7,5.7,6.3,26.1,73.6,1006.8,0.00,0,0.0,0.0,0,0.0,26.0,0.0,12.2,3.520